User: anonymous   Login
Location: Arboucave
(43.6130°N, 0.4343°W)
Time: 16:56:34
(UTC+00:00)
Language:

Cosmos 1634 Rocket - Orbit

View from above orbital plane
View from above orbital plane
View from above satellite
View from above satellite

Ground track
Ground track

The orbit is defined by the following mean orbital elements,

1 15598U          26017.27544080 +.00000000 +00000-0 +51784-4 0 00006
2 15598  82.9388 295.7861 0021799 341.3292 133.9625 13.76819417    04
Epoch (UTC): 17 January 2026 06:36:38
Eccentricity: 0.0021799
inclination: 82.9388°
perigee height: 959 km
apogee height: 991 km
right ascension of ascending node: 295.7861°
argument of perigee: 341.3292°
revolutions per day: 13.76819417
mean anomaly at epoch: 133.9625°

The dashed part of the orbit path shows where the satellite is in the earth's shadow,  

DLR